• In Russia
  • List of Countries
  • For 7 days
  • Water Temperature
  • Satellite Maps
  • Weather Map
  • Weather Widgets
  • user-avatar
    Login

    Hourly Weather Asuan

    Today, 19 October, Friday

    Time Temperature Precipitation Wind Pressure Humidity
    00:00 +28°C° 0 mm 4 mps 741 mmHg 32%
    01:00 +27°C° 0 mm 4 mps 741 mmHg 34%
    02:00 +27°C° 0 mm 4 mps 741 mmHg 36%
    03:00 +26°C° 0 mm 4 mps 741 mmHg 37%
    04:00 +26°C° 0 mm 4 mps 741 mmHg 38%
    05:00 +25°C° 0 mm 3 mps 742 mmHg 40%
    06:00 +26°C° 0 mm 3 mps 742 mmHg 37%
    07:00 +28°C° 0 mm 3 mps 742 mmHg 35%
    08:00 +29°C° 0 mm 3 mps 742 mmHg 33%
    09:00 +30°C° 0 mm 3 mps 742 mmHg 30%
    10:00 +33°C° 0 mm 3 mps 742 mmHg 27%
    11:00 +34°C° 0 mm 2 mps 742 mmHg 24%
    12:00 +35°C° 0 mm 2 mps 741 mmHg 22%
    13:00 +36°C° 0 mm 2 mps 741 mmHg 20%
    14:00 +37°C° 0 mm 2 mps 741 mmHg 18%
    15:00 +36°C° 0 mm 2 mps 740 mmHg 18%
    16:00 +36°C° 0 mm 2 mps 740 mmHg 18%
    17:00 +35°C° 0 mm 2 mps 740 mmHg 18%
    18:00 +34°C° 0 mm 2 mps 741 mmHg 20%
    19:00 +33°C° 0 mm 3 mps 741 mmHg 21%
    20:00 +31°C° 0 mm 3 mps 741 mmHg 22%
    21:00 +31°C° 0 mm 3 mps 741 mmHg 23%
    22:00 +30°C° 0 mm 3 mps 742 mmHg 24%
    23:00 +29°C° 0 mm 3 mps 742 mmHg 25%

    Tomorrow, 20 October, Saturday

    Time Temperature Precipitation Wind Pressure Humidity
    00:00 +29°C° 0 mm 3 mps 742 mmHg 26%
    01:00 +28°C° 0 mm 3 mps 742 mmHg 27%
    02:00 +28°C° 0 mm 3 mps 741 mmHg 28%
    03:00 +27°C° 0 mm 3 mps 742 mmHg 30%
    04:00 +27°C° 0 mm 3 mps 742 mmHg 31%
    05:00 +26°C° 0 mm 3 mps 742 mmHg 33%
    06:00 +28°C° 0 mm 3 mps 742 mmHg 32%
    07:00 +29°C° 0 mm 3 mps 742 mmHg 32%
    08:00 +30°C° 0 mm 3 mps 743 mmHg 31%
    09:00 +33°C° 0 mm 3 mps 743 mmHg 29%
    10:00 +34°C° 0 mm 2 mps 742 mmHg 27%
    11:00 +36°C° 0 mm 2 mps 742 mmHg 24%
    12:00 +37°C° 0 mm 2 mps 742 mmHg 22%
    13:00 +37°C° 0 mm 2 mps 741 mmHg 19%
    14:00 +38°C° 0 mm 2 mps 740 mmHg 16%
    15:00 +38°C° 0 mm 3 mps 740 mmHg 16%
    16:00 +37°C° 0 mm 3 mps 740 mmHg 16%
    17:00 +37°C° 0 mm 3 mps 740 mmHg 16%
    18:00 +36°C° 0 mm 3 mps 741 mmHg 17%
    19:00 +34°C° 0 mm 3 mps 741 mmHg 19%
    20:00 +33°C° 0 mm 3 mps 742 mmHg 20%
    21:00 +33°C° 0 mm 3 mps 742 mmHg 20%
    22:00 +31°C° 0 mm 3 mps 742 mmHg 20%
    23:00 +31°C° 0 mm 3 mps 742 mmHg 21%

    Day after tomorrow, 21 October, Sunday

    Time Temperature Precipitation Wind Pressure Humidity
    00:00 +30°C° 0 mm 3 mps 742 mmHg 22%
    01:00 +30°C° 0 mm 3 mps 741 mmHg 23%
    02:00 +29°C° 0 mm 3 mps 741 mmHg 24%
    03:00 +29°C° 0 mm 3 mps 741 mmHg 27%
    04:00 +28°C° 0 mm 3 mps 741 mmHg 31%
    05:00 +28°C° 0 mm 3 mps 741 mmHg 35%
    06:00 +29°C° 0 mm 3 mps 741 mmHg 36%
    07:00 +30°C° 0 mm 3 mps 742 mmHg 38%
    08:00 +31°C° 0 mm 3 mps 742 mmHg 39%
    09:00 +34°C° 0 mm 3 mps 742 mmHg 34%
    10:00 +36°C° 0 mm 3 mps 742 mmHg 28%
    11:00 +37°C° 0 mm 3 mps 742 mmHg 23%
    12:00 +38°C° 0 mm 2 mps 741 mmHg 21%
    13:00 +39°C° 0 mm 1 mps 741 mmHg 19%
    14:00 +39°C° 0 mm 1 mps 740 mmHg 17%
    15:00 +39°C° 0 mm 1 mps 740 mmHg 17%
    16:00 +37°C° 0 mm 1 mps 740 mmHg 17%
    17:00 +37°C° 0 mm 1 mps 740 mmHg 18%
    18:00 +35°C° 0 mm 1 mps 740 mmHg 19%
    19:00 +34°C° 0 mm 1 mps 740 mmHg 20%
    20:00 +33°C° 0 mm 1 mps 741 mmHg 21%
    21:00 +33°C° 0 mm 1 mps 741 mmHg 22%
    22:00 +32°C° 0 mm 1 mps 741 mmHg 23%
    23:00 +32°C° 0 mm 1 mps 741 mmHg 24%

    22 October, Monday

    Time Temperature Precipitation Wind Pressure Humidity
    00:00 +31°C° 0 mm 1 mps 741 mmHg 25%
    01:00 +31°C° 0 mm 1 mps 741 mmHg 26%
    02:00 +30°C° 0 mm 1 mps 740 mmHg 28%
    03:00 +30°C° 0 mm 1 mps 740 mmHg 29%
    04:00 +29°C° 0 mm 1 mps 740 mmHg 31%
    05:00 +29°C° 0 mm 1 mps 740 mmHg 32%
    06:00 +30°C° 0 mm 2 mps 741 mmHg 30%
    07:00 +32°C° 0 mm 2 mps 741 mmHg 28%
    08:00 +34°C° 0 mm 2 mps 742 mmHg 26%
    09:00 +36°C° 0 mm 3 mps 742 mmHg 22%
    10:00 +38°C° 0 mm 3 mps 741 mmHg 19%
    11:00 +40°C° 0 mm 4 mps 741 mmHg 15%
    12:00 +40°C° 0 mm 3 mps 741 mmHg 15%
    13:00 +40°C° 0 mm 2 mps 740 mmHg 14%
    14:00 +40°C° 0 mm 2 mps 739 mmHg 13%
    15:00 +40°C° 0 mm 2 mps 739 mmHg 13%
    16:00 +39°C° 0 mm 1 mps 739 mmHg 14%
    17:00 +37°C° 0 mm 1 mps 739 mmHg 14%
    18:00 +36°C° 0 mm 1 mps 740 mmHg 15%
    19:00 +34°C° 0 mm 1 mps 740 mmHg 16%
    20:00 +33°C° 0 mm 1 mps 741 mmHg 17%
    21:00 +34°C° 0 mm 2 mps 741 mmHg 18%
    22:00 +32°C° 0 mm 2 mps 741 mmHg 20%
    23:00 +33°C° 0 mm 3 mps 741 mmHg 21%

    23 October, Tuesday

    Time Temperature Precipitation Wind Pressure Humidity
    00:00 +31°C° 0 mm 3 mps 741 mmHg 23%
    01:00 +30°C° 0 mm 3 mps 740 mmHg 25%
    02:00 +30°C° 0 mm 3 mps 740 mmHg 26%
    03:00 +29°C° 0 mm 3 mps 740 mmHg 27%
    04:00 +29°C° 0 mm 3 mps 741 mmHg 28%
    05:00 +28°C° 0 mm 3 mps 741 mmHg 29%
    06:00 +30°C° 0 mm 3 mps 741 mmHg 27%
    07:00 +31°C° 0 mm 3 mps 742 mmHg 26%
    08:00 +33°C° 0 mm 3 mps 742 mmHg 24%
    09:00 +34°C° 0 mm 2 mps 742 mmHg 23%
    10:00 +36°C° 0 mm 2 mps 742 mmHg 21%
    11:00 +36°C° 0 mm 1 mps 742 mmHg 19%
    12:00 +37°C° 0 mm 1 mps 741 mmHg 18%
    13:00 +39°C° 0 mm 1 mps 740 mmHg 17%
    14:00 +39°C° 0 mm 1 mps 740 mmHg 16%
    15:00 +39°C° 0 mm 1 mps 740 mmHg 16%
    16:00 +37°C° 0 mm 1 mps 740 mmHg 16%
    17:00 +36°C° 0 mm 1 mps 740 mmHg 16%
    18:00 +35°C° 0 mm 1 mps 740 mmHg 18%
    19:00 +34°C° 0 mm 1 mps 741 mmHg 19%
    20:00 +34°C° 0 mm 2 mps 741 mmHg 20%
    21:00 +32°C° 0 mm 2 mps 741 mmHg 21%
    22:00 +33°C° 0 mm 3 mps 741 mmHg 22%
    23:00 +33°C° 0 mm 4 mps 741 mmHg 23%

    24 October, Wednesday

    Time Temperature Precipitation Wind Pressure Humidity
    00:00 +32°C° 0 mm 4 mps 741 mmHg 25%
    01:00 +30°C° 0 mm 4 mps 740 mmHg 27%
    02:00 +30°C° 0 mm 4 mps 740 mmHg 29%
    03:00 +29°C° 0 mm 4 mps 740 mmHg 31%
    04:00 +29°C° 0 mm 3 mps 741 mmHg 32%
    05:00 +28°C° 0 mm 3 mps 741 mmHg 34%
    06:00 +29°C° 0 mm 4 mps 741 mmHg 32%
    07:00 +30°C° 0 mm 4 mps 742 mmHg 31%
    08:00 +32°C° 0 mm 5 mps 742 mmHg 29%
    09:00 +34°C° 0 mm 4 mps 742 mmHg 26%
    10:00 +36°C° 0 mm 4 mps 742 mmHg 23%
    11:00 +37°C° 0 mm 4 mps 741 mmHg 20%
    12:00 +38°C° 0 mm 4 mps 741 mmHg 19%
    13:00 +39°C° 0 mm 3 mps 740 mmHg 18%
    14:00 +39°C° 0 mm 3 mps 740 mmHg 17%
    15:00 +39°C° 0 mm 3 mps 740 mmHg 18%
    16:00 +38°C° 0 mm 3 mps 740 mmHg 18%
    17:00 +37°C° 0 mm 4 mps 740 mmHg 19%
    18:00 +36°C° 0 mm 4 mps 740 mmHg 21%
    19:00 +35°C° 0 mm 4 mps 741 mmHg 23%
    20:00 +33°C° 0 mm 4 mps 741 mmHg 25%
    21:00 +33°C° 0 mm 4 mps 741 mmHg 26%
    22:00 +32°C° 0 mm 4 mps 741 mmHg 27%
    23:00 +30°C° 0 mm 4 mps 741 mmHg 28%
    Show more